Montrose, CO

9:30 AM MDT on April 27, 2017 (GMT -0600)
Montrose Regional

Weather History for KMTJ - October, 2013

Change the Weather History Date:

Monday, October 14, 2013

  Actual Average Record
Temperature  
Mean Temperature 44 °F 51 °F  
Max Temperature 51 °F 66 °F 79 °F (2015)
Min Temperature 37 °F 36 °F 25 °F (1997)
Degree Days  
Heating Degree Days 21 14  
Month to date heating degree days 199 162  
Since 1 July heating degree days 293 289  
Cooling Degree Days 0 0  
Month to date cooling degree days 0 0  
Year to date cooling degree days 891 643  
Moisture  
Dew Point 38 °F    
Average Humidity 74    
Maximum Humidity 92    
Minimum Humidity 56    
Precipitation  
Precipitation 0.19 in 0.05 in 0.63 in (2006)
Month to date precipitation 1.05 0.70  
Year to date precipitation 9.32 9.35  
Sea Level Pressure  
Sea Level Pressure 30.01 in    
Wind  
Wind Speed 6 mph (NE)    
Max Wind Speed 26 mph    
Max Gust Speed 33 mph    
Visibility 10 miles    
Events Rain , Thunderstorm    
T = Trace of Precipitation, MM = Missing Value Source: NWS Daily Summary

Daily Weather History Graph

Daily Weather History Graph

Search for Another Location

Airport or City:

Trip Planner

Search our weather history database for the weather conditions in past years. The results will help you decide how hot, cold, wet, or windy it might be!

Date:

Astronomy

Oct. 14, 2013 Rise Set
Actual Time 7:19 AM MDT 6:34 PM MDT
Civil Twilight 6:53 AM MDT 7:01 PM MDT
Nautical Twilight 6:22 AM MDT 7:31 PM MDT
Astronomical Twilight 5:51 AM MDT 8:02 PM MDT
Moon 4:03 PM MDT (10/14) 2:43 AM MDT (10/14)
Length of Visible Light 12h 07m
Length of Day
11h 14m
Waxing Gibbous, 80% of the Moon is Illuminated
Oct 14
Waxing Gibbous
Oct 18
Full
Oct 26
Last Quarter
Nov 3
New
Nov 9
First Quarter

Hourly Weather History & Observations

Time (MDT) Temp. Windchill Dew Point Humidity Pressure Visibility Wind Dir Wind Speed Gust Speed Precip Events Conditions
12:53 AM 50.0 °F - 35.1 °F 57% 29.81 in 10.0 mi NNW 11.5 mph - N/A   Partly Cloudy
1:53 AM 46.9 °F - 36.0 °F 66% 29.86 in 10.0 mi NW 15.0 mph 21.9 mph N/A   Partly Cloudy
2:53 AM 46.0 °F 41.4 °F 37.9 °F 73% 29.87 in 10.0 mi NNW 9.2 mph - N/A   Mostly Cloudy
3:23 AM 42.8 °F 33.8 °F 39.2 °F 87% 30.05 in 5.0 mi NW 21.9 mph 33.4 mph 0.08 in Rain , Thunderstorm Light Thunderstorms and Rain
3:38 AM 42.8 °F 35.1 °F 39.2 °F 87% 30.05 in 5.0 mi NW 16.1 mph 24.2 mph 0.09 in Rain , Thunderstorm Rain
3:46 AM 41.0 °F 35.2 °F 39.2 °F 93% 30.05 in 6.0 mi NW 9.2 mph - 0.10 in Rain Light Rain
3:53 AM 42.1 °F 37.1 °F 39.9 °F 92% 29.91 in 10.0 mi NNW 8.1 mph - 0.10 in Rain Light Rain
4:53 AM 42.1 °F 35.2 °F 39.9 °F 92% 29.90 in 10.0 mi SE 12.7 mph - 0.02 in   Mostly Cloudy
5:53 AM 42.1 °F 37.1 °F 36.0 °F 79% 29.93 in 10.0 mi East 8.1 mph - N/A   Partly Cloudy
6:53 AM 42.1 °F - 37.9 °F 85% 29.96 in 10.0 mi Calm Calm - N/A   Overcast
7:53 AM 42.1 °F - 39.0 °F 89% 29.98 in 10.0 mi Calm Calm - N/A   Overcast
8:53 AM 45.0 °F 40.6 °F 37.0 °F 74% 29.99 in 10.0 mi South 8.1 mph - N/A   Overcast
9:53 AM 46.9 °F - 37.0 °F 68% 30.00 in 10.0 mi ESE 6.9 mph - N/A   Overcast
10:53 AM 48.0 °F - 35.1 °F 61% 30.01 in 10.0 mi East 3.5 mph - N/A   Overcast
11:53 AM 48.0 °F - 36.0 °F 63% 30.00 in 10.0 mi NE 3.5 mph - N/A   Overcast
12:53 PM 46.9 °F - 37.9 °F 71% 30.02 in 10.0 mi North 10.4 mph - 0.00 in Rain Light Rain
1:53 PM 46.0 °F - 39.0 °F 76% 30.04 in 10.0 mi Calm Calm - 0.01 in Rain Light Rain
2:53 PM 48.9 °F - 37.0 °F 64% 30.02 in 10.0 mi ENE 5.8 mph - 0.00 in   Mostly Cloudy
3:53 PM 48.9 °F - 41.0 °F 74% 30.04 in 10.0 mi ESE 8.1 mph - 0.06 in   Partly Cloudy
4:53 PM 50.0 °F - 37.0 °F 61% 30.04 in 10.0 mi SE 3.5 mph - N/A   Partly Cloudy
5:53 PM 50.0 °F - 36.0 °F 59% 30.06 in 10.0 mi NW 3.5 mph - N/A   Mostly Cloudy
6:53 PM 46.0 °F 43.1 °F 39.0 °F 76% 30.09 in 10.0 mi West 5.8 mph - N/A   Clear
7:53 PM 44.1 °F - 39.9 °F 85% 30.11 in 10.0 mi Calm Calm - N/A   Overcast
8:53 PM 44.1 °F 41.5 °F 39.9 °F 85% 30.11 in 10.0 mi SE 4.6 mph - N/A   Overcast
9:53 PM 44.1 °F 39.5 °F 37.9 °F 79% 30.11 in 10.0 mi SSE 8.1 mph - N/A   Overcast
10:53 PM 41.0 °F 38.0 °F 37.0 °F 86% 30.12 in 10.0 mi ESE 4.6 mph - N/A   Partly Cloudy
11:53 PM 39.9 °F 37.8 °F 37.0 °F 89% 30.12 in 10.0 mi SW 3.5 mph - N/A   Mostly Cloudy